Flag for Germany Weather past 2 weeks in Lindlar, North Rhine-Westphalia, Germany

Now
52 °F

Overcast.


Feels Like: 49 °F
Forecast: 40 / 48 °F
Wind: 8 mph from Northwest

Location: Koeln / Bonn

Current Time: Oct 21, 2014 at 7:19:20 PM

Latest Report: Oct 21, 2014 at 6:00 PM


Visibility: 22 mi

Pressure: 29.59 "Hg

Humidity: 81%

Dew point: 46 °F

Location of LindlarLocation

Historic Weather in Lindlar — Graph

°F

Lindlar temperature yesterday

Maximum temperature yesterday: 62 °F (at 4:00 PM)
Minimum temperature yesterday: 53 °F (at 9:00 PM)
Average temperature yesterday: 58 °F

Past Weeks' High & Low Weather Summary

 TemperatureHumidityPressure
High75 °F (Oct 19, 4:00 PM)100% (Oct 11, 8:00 AM)30.14 "Hg (Oct 11, 8:00 AM)
Low45 °F (Oct 12, 8:00 AM)50% (Oct 14, 3:00 PM)29.55 "Hg (Oct 21, 5:00 PM)
Average58 °F83%29.85 "Hg
* Reported Oct 6 6:00 PM — Oct 21 6:00 PM, Lindlar, Weather by CustomWeather, © 2014

Note: Actual official high and low records may vary slightly from our data, if they occured in-between our weather recording intervals... More about our weather records

Advertising

Lindlar weather history for previous 24 hours

 ConditionsComfort  
Time TempWeatherWind HumidityBarometerVisibility
6:00 PM
Oct 21
52 °FOvercast.8 mph81%29.59 "Hg22 mi
5:00 PM53 °FRain showers. Low clouds.7 mph95%29.55 "Hg5 mi
4:00 PM55 °FLight rain. Overcast.7 mph86%29.57 "Hg16 mi
3:00 PM56 °FOvercast.7 mph76%29.62 "Hg31 mi
2:00 PM54 °FDrizzle. Overcast.5 mph88%29.66 "Hg11 mi
1:00 PM56 °FLight rain. Overcast.7 mph71%29.70 "Hg19 mi
12:00 PM56 °FOvercast.6 mph73%29.74 "Hg37 mi
11:00 AM55 °FOvercast.6 mph79%29.78 "Hg28 mi
10:00 AM53 °FOvercast.3 mph83%29.82 "Hg11 mi
9:00 AM53 °FOvercast.5 mph85%29.83 "Hg28 mi
8:00 AM51 °FPassing clouds.5 mph88%29.84 "Hg25 mi
7:00 AM51 °FOvercast.3 mph91%29.87 "Hg28 mi
6:00 AM49 °FPassing clouds.3 mph90%29.88 "Hg28 mi
5:00 AM53 °FOvercast.3 mph82%29.90 "Hg25 mi
4:00 AM51 °FPassing clouds.2 mph88%29.93 "Hg25 mi
3:00 AM49 °FPassing clouds.3 mph93%29.96 "Hg25 mi
2:00 AM48 °FPassing clouds.3 mph91%29.97 "Hg25 mi
1:00 AM51 °FPassing clouds.2 mph88%29.97 "Hg28 mi
12:00 AM52 °FPassing clouds.2 mph85%29.98 "Hg28 mi
11:00 PM
Oct 20
53 °FPassing clouds.3 mph83%29.99 "Hg28 mi
10:00 PM55 °FPassing clouds.3 mph80%30.00 "Hg28 mi
9:00 PM53 °FPassing clouds.2 mph87%30.00 "Hg28 mi
8:00 PM54 °FPassing clouds.1 mph89%30.01 "Hg28 mi
7:00 PM56 °FPassing clouds.2 mph80%30.00 "Hg28 mi
Weather by CustomWeather, © 2014

See weather overviewHow to use our weather pages